2022-098A (53444 NORAD) Tracking and Keplerian Element Data

This shows tracking and keplerian element data for the satellite.

Feedback or suggestion? Click here.




ElementValue
Catalog53444
Name2022-098A
Epoch Orbit1552
Epoch Day325.10992108
Epoch Year2022
RAAN59.5542
Inclination97.5299
Eccentricity0.0010216
Argument of Perigee260.6514
Mean Anonmoly221.0299
Mean Motion15.09683794
Decay Rate3.981E-05
L11 53444U 22098A 22325.10992108 .00003981 00000+0 25080-3 0 9993
L22 53444 97.5299 59.5542 0010216 260.6514 221.0299 15.09683794 15527



Live tracking and technical data element details for 2022-098A (NORAD 53444). 2022-098A can be tracked NOW for your location showing map with azimuth and elevation plus other details from your city location.







IsCatalogInMostPopularTable: catalog: 53444, numindb: 5
Update: records affected: 1



GetName: 53444 2022-098A

Hit Count: updated at: Tue, 29 Nov 2022 00:40:20 GMT